Regional Weather Roundup
Issued by NWS

Home | Current Version | Previous Version | Graphics & Text | Print | Product List | Glossary On
Versions: 1 2 3 4 5 6 7 8 9 10 11 12 13 14 15 16 17 18 19 20 21 22 23 24 25 26 27 28 29 30 31 32 33 34 35 36 37 38 39 40 41 42 43 44 45 46 47 48 49 50
000
ASUS43 KLOT 221503
RWRIL

ILLINOIS REGIONAL WEATHER ROUNDUP
NATIONAL WEATHER SERVICE CHICAGO/ROMEOVILLE IL
900 AM CST SUN JAN 22 2017

NOTE: "FAIR" INDICATES FEW OR NO CLOUDS BELOW 12,000 FEET WITH NO
SIGNIFICANT WEATHER AND/OR OBSTRUCTIONS TO VISIBILITY.

* THESE STATIONS ARE NOT UNDER NWS QUALITY CONTROL. THEY ALSO MAY NOT
  REPORT WEATHER SUCH AS PRECIPITATION OR FOG.

ILZ001-002-007-009-015-016-024-221600-
NORTHWEST ILLINOIS

CITY           SKY/WX    TMP DP  RH WIND       PRES   REMARKS
MOLINE         CLOUDY    34  32  92 CALM      29.65R FOG
STERLING*      CLOUDY    31  31 100 CALM      29.67R FOG
SAVANNA*       FOG       31  31 100 CALM      29.66R VSB<1/4
$$

ILZ003-004-008-010-011-017-018-221600-
NORTH CENTRAL ILLINOIS

CITY           SKY/WX    TMP DP  RH WIND       PRES   REMARKS
ROCKFORD       FOG       36  35  96 NE5       29.67R VSB 1/2 WCI  32
FREEPORT*      FOG       31  31 100 CALM      29.67R VSB<1/4
ROCHELLE*      SNOW      32  32 100 NE8       29.65S VSB<1/4 WCI  25
DE KALB*       FOG       33  32  99 NW5       29.65R VSB<1/4 WCI  28
$$

ILZ005-006-012>014-019>023-221600-
NORTHEAST ILLINOIS

CITY           SKY/WX    TMP DP  RH WIND       PRES   REMARKS
CHICAGO-OHARE  CLOUDY    41  38  89 N5        29.63R
CHICAGO-MIDWAY FOG       42  41  96 NE3       29.64R VSB 1
AURORA         FOG       33  32  96 NW6       29.64S VSB 1/4 WCI  28
LANSING*       FOG       40  40 100 NE5       29.64R VSB 1/2
JOLIET*        FOG       41  41 100 N5        29.64R VSB 1/2
WAUKEGAN       CLOUDY    42  40  92 NW3       29.63R FOG
DUPAGE AIRPORT CLOUDY    34  32  92 CALM      29.63S
KANKAKEE*      FOG       38  37  98 N7        29.64R VSB 1/4 WCI  33
WHEELING       CLOUDY    43  39  86 N3        29.64S
MORRIS*        FOG       35  35  99 CALM      29.63R VSB<1/4
ROMEOVILLE*    CLOUDY    40  40 100 N7        29.64R FOG
NORTHERLY ISL    N/A     39  38  96 N5          N/A
$$

LMZ740>746-221600-
SOUTHERN LAKE MICHIGAN

STATION/POSITION SKY/WX   TEMP    WIND        PRES    VSBY  WAVE
                          AIR SEA DIR/SP/G                  HT/PER
                          (F)     (DEG/KT/KT) (MB)    (MI)  (FT/S)
HARRISON CRIB              39     340/  6/  6   N/A
BURNHAM HARBOR             39      30/  4/  5   N/A
CALUMET HARBOR             38      10/  2/  4 1003.0R
BURNS HARBOR               36      80/  7/  9 1004.4R
MICHIGAN CITY              36      40/  9/ 10   N/A
$$

ILZ025>027-034>036-040-047-049-050-058-095>099-221600-
WEST-CENTRAL ILLINOIS

CITY           SKY/WX    TMP DP  RH WIND       PRES   REMARKS
QUINCY         CLOUDY    41  39  93 NE10      29.61R FOG
GALESBURG*     CLOUDY    35  35 100 CALM      29.64R FOG
MACOMB*        CLOUDY    38  38 100 N7        29.65R FOG     WCI  33
JACKSONVILLE*  FOG       40  40 100 N7        29.60S VSB 1/4
PITTSFIELD*    CLOUDY    42  42  99 N9        29.60S FOG
$$

ILZ028>032-037-038-041>044-048-051>054-059>061-221600-
CENTRAL ILLINOIS

CITY           SKY/WX    TMP DP  RH WIND       PRES   REMARKS
BLOOMINGTON    FOG       39  39 100 N12       29.62R VSB 1/2 WCI  32
DECATUR        CLOUDY    42  42 100 NE8       29.59R FOG
PEORIA         FOG       39  39 100 N5        29.62F VSB 1
LACON*         FOG       35  35 100 CALM      29.64R VSB 1/4
LINCOLN*       CLOUDY    41  41 100 N9        29.61R FOG
SPRINGFIELD    FOG       41  40  96 N10       29.60S VSB 1/2
TAYLORVILLE    CLOUDY    41  40  98 N8        29.58R FOG
$$

ILZ033-039-045-046-055>057-062-063-221600-
EAST-CENTRAL ILLINOIS

CITY           SKY/WX    TMP DP  RH WIND       PRES   REMARKS
CHAMPAIGN      CLOUDY    45  41  86 NE8       29.58F
MATTOON        CLOUDY    47  47 100 N7        29.55F FOG
PARIS*         PTSUNNY   48  48 100 E5        29.58S
$$

ILZ079-100>102-221600-
SOUTHWEST ILLINOIS

CITY           SKY/WX    TMP DP  RH WIND       PRES   REMARKS
ALTON          PTSUNNY   45  41  87 N12       29.54R
BELLEVILLE     CLOUDY    49  49 100 N10       29.49F
CAHOKIA*       CLOUDY    49  44  83 N13       29.51F
SPARTA*        PTSUNNY   50  49  97 N5        29.48F
$$

ILZ064>066-069>071-074>076-080>082-084>086-088>090-092>094-221600-
SOUTH-CENTRAL ILLINOIS

CITY           SKY/WX    TMP DP  RH WIND       PRES   REMARKS
CARBONDALE     CLOUDY    51  50  96 NE3       29.45F
CAIRO*         PTSUNNY   54  50  89 E9        29.44F
EFFINGHAM*     CLOUDY    51  51 100 CALM      29.55F
MARION         CLOUDY    52  52 100 NE9       29.47F
MT. VERNON     CLOUDY    52  50  93 NE6       29.49F
CENTRALIA*     CLOUDY    52  50  93 NE6       29.49F
SALEM*         CLOUDY    53  49  86 E7        29.51S
METROPOLIS*    CLOUDY    55  51  85 CALM      29.47R
$$

ILZ067-068-072-073-078-083-087-091-221600-
SOUTHEAST ILLINOIS

CITY           SKY/WX    TMP DP  RH WIND       PRES   REMARKS
LAWRENCEVILLE  CLOUDY    51  49  92 NE6       29.53F
FLORA*         CLOUDY    52  50  92 N6        29.52F
FAIRFIELD*     PTSUNNY   52  50  92 NE3       29.49S
HARRISBURG*    CLOUDY    53  50  90 NE7       29.47F
ROBINSON*      CLOUDY    49  48  99 NE5       29.55F
CARMI*         CLOUDY    52  50  94 NE7       29.48F
$$

ABBREVIATIONS USED IN REMARKS
   TC - TEMPERATURE IN CELSIUS
  WCI - WIND CHILL INDEX
   HX - HEAT INDEX
  VSB - VISIBILITY
$$





USA.gov is the U.S. government's official web portal to all federal, state and local government web resources and services.